Flag for Micronesia Weather past 2 weeks in Weno, Truk, Micronesia

Now
84 °F

Mostly cloudy.


Feels Like: 94 °F
Forecast: 80 / 88 °F
Wind: 12 mph from Northeast

Location: Truk Intl / Moen Island

Current Time: Dec 21, 2014 at 6:50:35 PM

Latest Report: Dec 21, 2014 at 5:52 PM


Visibility: 15 mi

Pressure: 29.71 "Hg

Humidity: 81%

Dew point: 77 °F

Location of WenoLocation

Historic Weather in Weno — Graph

°F

Weno temperature yesterday

Maximum temperature yesterday: 87 °F (at 12:52 PM)
Minimum temperature yesterday: 82 °F (at 12:54 AM)
Average temperature yesterday: 84 °F

Past Weeks' High & Low Weather Summary

 TemperatureHumidityPressure
High88 °F (Dec 12, 11:50 AM)98% (Dec 11, 3:50 AM)29.89 "Hg (Dec 11, 3:50 AM)
Low76 °F (Dec 11, 4:52 AM)68% (Dec 17, 1:52 PM)29.69 "Hg (Dec 21, 2:53 PM)
Average82 °F84%29.81 "Hg
* Reported Dec 6 5:50 PM — Dec 21 5:52 PM, Weno, Weather by CustomWeather, © 2014

Note: Actual official high and low records may vary slightly from our data, if they occured in-between our weather recording intervals... More about our weather records

Advertising

Weno weather history for previous 24 hours

 ConditionsComfort  
Time TempWeatherWind HumidityBarometerVisibility
5:52 PM
Dec 21
84 °FMostly cloudy.12 mph81%29.71 "Hg15 mi
4:55 PM83 °FMostly cloudy.12 mph82%29.73 "Hg15 mi
3:53 PM83 °FCloudy.7 mph85%29.73 "Hg15 mi
2:53 PM85 °FCloudy.14 mph82%29.69 "Hg15 mi
1:53 PM85 °FMostly cloudy.14 mph79%29.73 "Hg15 mi
12:58 PM81 °FPartly sunny.8 mph91%29.71 "Hg15 mi
11:50 AM86 °FPartly sunny.8 mph80%29.78 "Hg15 mi
10:50 AM84 °FPartly sunny.6 mph83%29.82 "Hg15 mi
9:50 AM84 °FCloudy.14 mph85%29.81 "Hg15 mi
8:50 AM83 °FCloudy.17 mph87%29.83 "Hg15 mi
7:50 AM81 °FCloudy.17 mph89%29.81 "Hg15 mi
6:50 AM79 °FCloudy.14 mph87%29.80 "Hg15 mi
5:50 AM80 °FOvercast.6 mph89%29.78 "Hg15 mi
4:50 AM81 °FSprinkles. Overcast.12 mph88%29.78 "Hg15 mi
3:50 AM80 °FPartly cloudy.8 mph86%29.75 "Hg15 mi
2:50 AM81 °FMostly cloudy.8 mph88%29.77 "Hg15 mi
1:50 AM81 °FPassing clouds.8 mph88%29.78 "Hg15 mi
12:50 AM79 °FOvercast.9 mph91%29.79 "Hg15 mi
11:50 PM
Dec 20
83 °FPassing clouds.8 mph82%29.79 "Hg15 mi
10:50 PM84 °FPassing clouds.8 mph80%29.79 "Hg15 mi
9:50 PM84 °FPartly cloudy.6 mph80%29.80 "Hg15 mi
8:50 PM84 °FPassing clouds.9 mph77%29.81 "Hg15 mi
7:50 PM83 °FPassing clouds.9 mph82%29.79 "Hg15 mi
6:50 PM84 °FPassing clouds.9 mph80%29.77 "Hg15 mi
Weather by CustomWeather, © 2014

See weather overviewHow to use our weather pages